This is the latest recevied weather packets stored in our database for station/object GCEMA. If no packets are shown the sender has not sent any weather packets the latest 10 day(s).
| Time | Temp. | Humidity | Pressure | Rain* | Wind** | Luminosity | Snow |
|---|---|---|---|---|---|---|---|
| 1777679847 | 15.56° C | - | 1012.9 hPa | 0 mm | 0 m/s | - | - |
| 1777679668 | 16.11° C | - | 1012.8 hPa | 0 mm | 0 m/s | - | - |
| 1777679488 | 16.11° C | - | 1012.8 hPa | 0 mm | 0 m/s | - | - |
| 1777679129 | 16.67° C | - | 1012.8 hPa | 0 mm | 0 m/s | - | - |
| 1777678947 | 16.11° C | - | 1012.7 hPa | 0 mm | 0 m/s | - | - |
| 1777678767 | 16.11° C | - | 1012.6 hPa | 0 mm | 0 m/s | - | - |
| 1777678587 | 15° C | - | 1012.6 hPa | 0 mm | 0 m/s | - | - |
| 1777678408 | 14.44° C | - | 1012.6 hPa | 0 mm | 0 m/s | - | - |
| 1777678228 | 15° C | - | 1012.7 hPa | 0 mm | 0 m/s | - | - |
| 1777677866 | 14.44° C | - | 1012.7 hPa | 0 mm | 0 m/s | - | - |
| 1777677686 | 15° C | - | 1012.8 hPa | 0 mm | 0 m/s | - | - |
| 1777677507 | 15.56° C | - | 1012.9 hPa | 0 mm | 0 m/s | - | - |
| 1777677327 | 14.44° C | - | 1012.9 hPa | 0 mm | 0 m/s | - | - |
| 1777677145 | 15° C | - | 1013 hPa | 0 mm | 0 m/s | - | - |
| 1777676786 | 15° C | - | 1013.2 hPa | 0 mm | 0 m/s | - | - |
| 1777676606 | 15° C | - | 1013.2 hPa | 0 mm | 0 m/s | - | - |
| 1777676427 | 16.11° C | - | 1013.2 hPa | 0 mm | 0 m/s | - | - |
| 1777676244 | 15° C | - | 1013.2 hPa | 0 mm | 0 m/s | - | - |
| 1777676065 | 16.67° C | - | 1013.2 hPa | 0 mm | 0 m/s | - | - |
| 1777675885 | 17.22° C | - | 1013.2 hPa | 0 mm | 0 m/s | - | - |
| 1777675706 | 17.22° C | - | 1013.1 hPa | 0 mm | 0 m/s | - | - |
| 1777675526 | 17.22° C | - | 1013.2 hPa | 0 mm | 0 m/s | - | - |
| 1777675343 | 16.67° C | - | 1013.1 hPa | 0 mm | 0 m/s | - | - |
| 1777674984 | 15.56° C | - | 1013.3 hPa | 0 mm | 0 m/s | - | - |
| 1777674805 | 15° C | - | 1013.2 hPa | 0 mm | 0 m/s | - | - |
* Rain latest hour (hover to see other rain measurements)
** Current wind speed in m/s (hover to see current wind gust speed)